Tracking 19903 objects as of 16-Oct-2019
HD Live streaming from Space Station
objects crossing your sky now

SL-16 R/B

Track SL-16 R/B now!
10-day predictions
SL-16 R/B is classified as:


NORAD ID: 25861
Int'l Code: 1999-039B
Perigee: 630.7 km
Apogee: 651.4 km
Inclination: 98.2 °
Period: 97.4 minutes
Semi major axis: 7012 km
RCS: 13.5291 m2 (large)
Launch date: July 17, 1999
Source: Commonwealth of Independent States (former USSR) (CIS)
Launch site: TYURATAM MISSILE AND SPACE COMPLEX (TTMTR)

Note: This is a ROCKET BODY
aabbcc
Your satellite tracking list
Your tracking list is empty




NASA's NSSDC Master Catalog

Two Line Element Set (TLE):
1 25861U 99039B   19289.01481444  .00000010  00000-0  88695-5 0  9999
2 25861  98.1979 281.4861 0014713 222.7880 203.0269 14.78547140 91498
Source of the keplerian elements: AFSPC